COSMOS 2444 (GLONASS)

Satellite information

Favourite Embed

Satellite Type and Status

PAYLOADIN ORBIT

Key statistics

Satellite COSMOS 2444 (GLONASS) at a glance.

Uptime

6070

Days in orbit

Revolutions

≈ 2.1

Per day

Orbit

MEO

Medium Earth Orbit

Inclination

65.7

Latest

Satellite identification and parameters

Extended collection of information and parameters for COSMOS 2444 (GLONASS).

Object identification

Identified? True

Debris? False

Object name: COSMOS 2444 (GLONASS)

International designator: 2008-046C

Object number (NORAD): 33380

Object ID (CCSDS): 33380

Country: COMMONWEALTH OF INDEPENDENT STATES (CIS)

Current information (Y/N): Y

RCS size: LARGE

Orbital parameters

Period: 675.7 minutes

Inclination: 65.707 deg

SMA: 25507.203 km

Apoapsis: 19177.264 km

Periapsis: 19080.872 km

RAAN: 328.7367 deg

Eccentricy: 0.0018895

Argument of periapsis: 294.0631 deg

Mean anomaly: 262.3817 deg

Mean motion: 2.13112293 rev/day

Mean motion (dot): -0.00000044 rev/day2

B* drag term: 0.0 1/REarth

Two-line elements (TLE)

Creation date: May 7, 2025, 3:14 a.m.

Reference frame: TEME

Reference center: EARTH

Epoch: May 6, 2025, 7:37 a.m. UTC

TLE line 0: 0 COSMOS 2444 (GLONASS)

TLE line 1: 1 33380U 08046C 25126.31789991 -.00000044 00000-0 00000-0 0 9997

TLE line 2: 2 33380 65.7070 328.7367 0018895 294.0631 262.3817 2.13112293129270

Live tracking on map

Real-time ground track for satellite COSMOS 2444 (GLONASS).

In-orbit conjunctions

A list of the most updated potential collisions computed for object COSMOS 2444 (GLONASS).

Target Orbit TCA Probability of collision Miss distance Type
COSMOS 2289 (GLONASS) MEO 2025-05-09 10:06:56 TBA 4585.0 (m) PAYLOAD
SL-12 R/B(2) MEO 2025-05-01 12:36:58 TBA 3037.0 (m) ROCKET BODY

Associated space launch

GLONASS navigation satellites

COSMOS 2444 (GLONASS) was lifted into orbit during the mission ‘Proton-M | Uragan-M 15 to 17’, on board a Proton-M space rocket.

The launch took place on Sept. 25, 2008, 8:49 a.m. from 81/23 (81L).

For more information about the launch, click the button.

Launch to space Proton-M | Uragan-M 15 to 17
Proton-M | Uragan-M 15 to 17

Agency: N/A

Status: Launch Successful

Launch date: Sept. 25, 2008, 8:49 a.m. UTC

Rocket: Proton-M

Launch pad: 81/23 (81L)

Location: Baikonur Cosmodrome, Republic of Kazakhstan

...

Latest news about this satellite

There are no fresh news available about this satellite. Check back as we update our databases every day.


Newsletter sign-up

Weekly statistics, charts and insights to help you stay on top of the space industry.